Flag for Maldives Weather past 2 weeks in Male, Maldives

Now
82 °F

Partly sunny.


Feels Like: 92 °F
Forecast: 83 / 90 °F
Wind: 12 mph from Northeast

Location: Male Airport

Current Time: Mar 28, 2015 at 7:54:06 AM

Latest Report: Mar 28, 2015 at 7:00 AM


Visibility: 6 mi

Pressure: 29.89 "Hg

Humidity: 89%

Dew point: 79 °F

Location of MaleLocation

Historic Weather in Male — Graph

°F

Male temperature yesterday

Maximum temperature yesterday: 90 °F (at 11:00 AM)
Minimum temperature yesterday: 82 °F (at 2:00 AM)
Average temperature yesterday: 86 °F

Past Weeks' High & Low Weather Summary

 TemperatureHumidityPressure
High90 °F (Mar 13, 10:00 AM)100% (Mar 23, 6:00 AM)29.98 "Hg (Mar 23, 6:00 AM)
Low77 °F (Mar 14, 6:00 AM)59% (Mar 13, 2:00 PM)29.77 "Hg (Mar 24, 4:00 PM)
Average85 °F73%29.88 "Hg
* Reported Mar 13 6:00 AM — Mar 28 6:00 AM, Male, Weather by CustomWeather, © 2015

Note: Actual official high and low records may vary slightly from our data, if they occured in-between our weather recording intervals... More about our weather records

Advertising

Male weather history for previous 24 hours

 ConditionsComfort  
Time TempWeatherWind HumidityBarometerVisibility
6:00 AM
Sat, Mar 28
82 °FPassing clouds.10 mph89%29.86 "Hg6 mi
5:00 AM82 °FPassing clouds.5 mph84%29.86 "Hg6 mi
3:00 AM82 °FThunderstorms. Passing clouds.5 mph79%29.86 "Hg5 mi
2:00 AM82 °FThunderstorms. Passing clouds.8 mph79%29.86 "Hg5 mi
1:00 AM82 °FThunderstorms. Passing clouds.13 mph79%29.89 "Hg5 mi
12:00 AM84 °FPassing clouds.15 mph79%29.92 "Hg5 mi
11:00 PM
Fri, Mar 27
84 °FPassing clouds.8 mph79%29.95 "Hg5 mi
10:00 PM84 °FPassing clouds.9 mph74%29.95 "Hg5 mi
9:00 PM86 °FPassing clouds.8 mph75%29.92 "Hg5 mi
8:00 PM86 °FPassing clouds.6 mph70%29.89 "Hg5 mi
7:00 PM86 °FPassing clouds.5 mph70%29.89 "Hg6 mi
6:00 PM86 °FPassing clouds.7 mph70%29.86 "Hg6 mi
5:00 PM88 °FPassing clouds.7 mph66%29.83 "Hg6 mi
4:00 PM90 °FPassing clouds.6 mph63%29.83 "Hg6 mi
3:00 PM90 °FPassing clouds.7 mph63%29.83 "Hg6 mi
2:00 PM90 °FPassing clouds.8 mph63%29.86 "Hg6 mi
1:00 PM90 °FPassing clouds.10 mph63%29.89 "Hg6 mi
12:00 PM90 °FPassing clouds.8 mph63%29.92 "Hg6 mi
11:00 AM90 °FPassing clouds.7 mph63%29.92 "Hg6 mi
10:00 AM88 °FPassing clouds.9 mph66%29.95 "Hg6 mi
9:00 AM88 °FPassing clouds.5 mph62%29.95 "Hg6 mi
8:00 AM86 °FScattered clouds.3 mph70%29.95 "Hg6 mi
7:00 AM84 °FPartly sunny.2 mph74%29.92 "Hg6 mi
Weather by CustomWeather, © 2015

See weather overviewHow to use our weather pages